Location: Stamford Observatory
(41.1241°N, 73.5498°W)
Time: 16:33:32
(UTC-04:00)

Daily predictions for brighter satellites

Satellite Brightness Start Highest point End
(mag) Time Altitude Azimuth Time Altitude Azimuth Time Altitude Azimuth
Cosmos 304 Rocket 4.0 20:40:17 10° S 20:44:55 50° ESE 20:49:34 10° NNE
ISS -3.9 20:43:16 10° SW 20:46:31 70° SE 20:49:46 10° ENE
Abrixas rocket 2.7 20:53:17 10° SSW 20:56:17 36° SE 20:59:17 10° ENE
Cosmos 2084 4.4 20:55:26 10° S 20:59:00 25° ESE 21:02:26 10° ENE
Cosmos 1300 Rocket 4.1 20:57:49 10° NNW 21:02:09 61° W 21:06:25 10° S
BREEZE-M R/B 2.6 20:57:33 10° WSW 21:02:35 89° NNW 21:05:26 10° ENE
Spot 2 Rocket 3.5 20:58:12 10° SSE 21:03:14 83° ENE 21:08:18 10° NNW
Timation 2 Rocket 4.1 20:58:04 10° S 21:03:43 47° ESE 21:09:27 10° NE
Cosmos 2082 Rocket 4.1 21:00:51 10° WSW 21:05:59 35° WNW 21:11:11 10° N
GPS 2-04 Rocket1 4.1 21:03:55 10° WSW 21:07:29 27° SSW 21:10:34 13° SE
SAR-Lupe-3 4.5 21:03:55 10° NNE 21:07:31 70° ESE 21:11:05 10° S
NOAA 11 4.2 21:02:23 10° SSE 21:07:52 89° ENE 21:13:22 10° NNW
USA 238 DEB 4.2 21:01:16 10° SW 21:08:05 68° NW 21:15:03 10° NNE
USA 238 4.1 21:01:23 10° SW 21:08:11 69° NW 21:15:09 10° NNE
Cosmos 468 Rocket 4.2 21:03:23 10° S 21:08:28 51° ESE 21:13:33 10° NNE
Cosmos 2322 Rocket 2.9 21:03:16 10° N 21:08:32 40° ENE 21:13:09 13° SE
Cosmos 1937 Rocket 4.4 21:04:25 10° N 21:09:06 34° ENE 21:13:06 13° SE
Tiangong 2 1.2 21:07:35 10° WSW 21:10:40 53° SSE 21:13:45 10° E
ARGOS 3.5 21:11:32 11° SE 21:16:25 51° ENE 21:21:39 10° N
SL-16 R/B 2.6 21:11:01 10° NNW 21:16:32 49° ENE 21:21:03 15° SE
Cosmos 1763 Rocket 4.0 21:13:15 10° S 21:18:09 39° ESE 21:23:03 10° NE
USA 186 4.3 21:16:18 10° SW 21:18:47 21° W 21:21:22 10° NW
Cosmos 841 Rocket 4.4 21:17:39 11° SSE 21:21:55 29° E 21:26:24 10° NE
ELECTRON R/B 4.4 21:21:13 10° N 21:23:37 58° E 21:24:55 23° SSE
Atlas Centaur 2 2.9 21:22:47 10° SW 21:24:56 15° S 21:25:52 14° S
Cosmos 1570 Rocket 4.2 21:19:39 10° SSW 21:24:59 78° WNW 21:30:22 10° NNE
ATLAS CENTAUR R/B 2.9 21:22:15 10° NW 21:26:28 37° WSW 21:30:51 10° S
Helios 1B rocket 4.3 21:24:22 10° ENE 21:26:33 14° E 21:27:01 14° E
Cosmos 1975 2.9 21:24:35 10° N 21:28:39 79° W 21:32:28 11° S
BREEZE M DEB (TANK) 3.6 21:19:57 10° WNW 21:31:46 71° NNE 21:34:41 18° ESE
Tsikada Rocket 4.4 21:26:09 10° NNW 21:32:30 66° W 21:38:49 10° S
USA 245 4.2 21:32:07 21° ESE 21:33:44 31° ENE 21:37:21 10° N
USA 234 3.6 21:32:10 10° NE 21:38:42 72° NW 21:45:14 10° WSW
NOSS 3-2 (A) 3.9 21:34:49 10° SW 21:40:39 65° NW 21:47:11 10° NNE
SPOT 1/Viking Rocket 4.5 21:38:28 19° ESE 21:41:24 33° ENE 21:46:00 10° N
Meteor 1-19 Rocket 4.3 21:35:47 10° S 21:41:41 84° E 21:47:38 10° N
Meteor 1-12 Rocket 4.5 21:36:31 10° NNW 21:42:29 79° W 21:48:06 12° S
Shenzhou-11 Module 2.3 21:41:13 10° WNW 21:44:10 61° N 21:45:53 22° E
H-2A R/B 1.9 21:41:38 19° SSE 21:45:07 72° ENE 21:50:08 10° N
NOSS 3-2 (C) 3.5 21:39:23 10° SW 21:45:17 82° NW 21:51:51 10° NNE
MetOp-B 4.1 21:45:40 18° SSE 21:49:41 85° ENE 21:55:04 10° NNW
Cosmos 1898 Rocket 3.7 21:44:49 10° NNW 21:50:07 75° WSW 21:53:56 19° S
Cosmos 1455 Rocket 3.2 21:46:38 10° N 21:50:55 56° E 21:53:03 28° SSE
ERS-1 Rocket 3.0 21:47:52 22° SSE 21:51:02 67° ENE 21:56:03 10° N
CZ-4C R/B 4.3 21:46:09 10° NNW 21:51:54 26° NE 21:58:12 10° E
SPOT 5 3.3 21:51:46 26° ESE 21:53:41 40° ENE 21:57:55 10° N
Cosmos 1356 4.0 21:53:13 34° ESE 21:53:51 38° E 21:57:07 10° NNE
DMSP B5D2-2 4.3 21:49:09 10° NNE 21:54:17 48° E 21:57:22 23° SSE
Cosmos 1814 Rocket 3.9 21:50:38 10° SSW 21:55:51 81° ESE 22:01:11 10° NNE
SL-08 RB Rocket 3.7 21:55:16 23° S 21:58:07 84° WSW 22:02:42 10° NNW
CSL-04 DEB 4.5 21:57:04 25° S 21:59:28 82° WSW 22:03:37 10° NNW
Cosmos 2360 Rocket 2.8 21:54:19 10° NNW 21:59:45 45° ENE 22:02:36 25° ESE
Cosmos 1975 Rocket 3.8 21:56:18 10° SSW 22:00:31 51° W 22:04:46 10° N
Cosmos 1980 Rocket 4.1 21:57:40 10° NW 22:02:02 23° WSW 22:06:24 10° SSW
Cosmos 1242 Rocket 3.7 22:00:03 10° NNW 22:03:29 39° W 22:05:47 18° SSW
Cosmos 2219 Rocket 4.2 22:01:11 10° N 22:04:40 17° NE 22:07:53 11° E
Meteor 2-20 4.5 22:00:03 10° N 22:06:12 84° W 22:10:32 21° S
Meteor 1-29 4.4 22:03:23 10° NE 22:05:42 23° E 22:05:42 23° E
Cosmos 1666 4.4 22:04:23 10° NNW 22:07:47 29° W 22:10:56 11° SSW
Terra 2.9 22:07:33 25° ESE 22:09:08 31° ENE 22:13:18 10° N
Meteor 1-23 Rocket 4.3 22:06:43 26° SSE 22:09:49 59° E 22:15:16 10° NNE
Meteor 2-20 Rocket 4.4 22:03:45 10° N 22:09:55 81° E 22:13:35 26° SSE
Meteor 2-9 Rocket 4.2 22:04:42 10° NNW 22:10:02 78° W 22:13:23 24° S
CZ-2C R/B 4.2 22:06:25 10° NE 22:10:14 18° E 22:10:37 18° E
CENTAUR R/B 2.4 22:06:24 10° SSW 22:12:15 73° ESE 22:19:01 10° NE
Cosmos 990 Rocket 4.2 22:07:28 10° NNW 22:12:39 65° WSW 22:15:32 26° S
Lacrosse 5 rocket 2.7 22:11:48 10° NNW 22:15:43 32° NE 22:17:34 22° E
Cosmos 1544 Rocket 3.7 22:13:33 10° NNW 22:17:59 72° W 22:20:00 32° S
Cosmos 2333 Rocket 4.1 22:14:39 10° N 22:18:39 19° NE 22:21:38 13° E
Cosmos 2150 Rocket 4.1 22:16:31 10° NNW 22:21:55 78° WSW 22:24:19 33° S
COSMOS 2428 3.9 22:17:16 10° N 22:22:14 30° NE 22:24:38 22° E
ISS -1.1 22:20:39 10° WNW 22:23:16 22° NNW 22:25:54 10° NNE
Helios 1A 2.9 22:22:56 44° S 22:24:13 85° WSW 22:28:24 10° NNW
Meteor 2-4 Rocket 4.2 22:22:14 10° SSW 22:27:28 57° WNW 22:32:57 10° N
Cosmos 1833 4.1 22:25:17 13° SSW 22:30:25 89° ESE 22:36:09 10° NNE
Abrixas rocket 3.6 22:29:38 10° W 22:32:41 38° NNW 22:35:45 10° NE
Nadezhda 4 Rocket 4.1 22:26:42 10° N 22:32:59 65° E 22:35:31 37° SSE
Cosmos 1536 Rocket 3.6 22:31:58 35° SSW 22:33:46 77° W 22:38:14 10° N
SJ 16-02 1.5 22:29:56 10° N 22:34:20 57° ENE 22:35:06 49° ESE
Aureole 2 Rocket 2.8 22:32:20 10° NNW 22:34:51 45° WNW 22:34:51 45° WNW
Spot 1 3.9 22:36:58 59° SE 22:37:33 70° ENE 22:41:38 10° N
Cosmos 1340 Rocket 4.1 22:38:32 19° SW 22:40:58 39° WNW 22:44:49 10° N
Cosmos 2297 Rocket 4.4 22:48:24 10° E 22:48:24 10° E 22:48:36 10° ENE
Tiangong 2 2.0 22:44:16 10° W 22:46:40 45° WNW 22:46:40 45° WNW
Cosmos 2322 3.7 22:41:52 10° NNW 22:47:38 80° ENE 22:49:20 47° SE
Okean 2 3.2 22:48:13 72° S 22:48:38 87° E 22:52:50 10° N
Cosmos 2227 Rocket 4.2 22:51:15 13° E 22:51:15 13° E 22:52:42 10° ENE
CZ-2C R/B 3.3 22:50:39 47° SE 22:51:57 61° ENE 22:57:27 10° N
Cosmos 2322 Rocket 3.6 22:47:38 10° NW 22:52:23 29° WSW 22:54:59 20° SW
Cosmos 2237 Rocket 4.0 22:51:49 10° N 22:56:03 21° NE 22:58:28 16° E
Cosmos 540 Rocket 3.8 22:54:43 27° SW 22:57:32 65° WNW 23:02:42 10° NNE
Cosmos 1066 Rocket 4.0 22:57:24 55° SSE 22:58:26 69° E 23:03:50 10° NNE
Cosmos 1356 Rocket 3.3 22:59:33 82° S 22:59:45 89° E 23:04:04 10° N
SL-16 R/B 3.9 22:55:52 10° NW 23:00:15 24° W 23:02:56 17° SW
Cosmos 2026 Rocket 4.4 22:54:21 10° N 23:00:15 44° ENE 23:01:36 39° ESE
Cosmos 2034 Rocket 4.4 22:56:40 24° SSW 23:00:24 59° W 23:06:30 10° N
Helios 1B rocket 3.3 22:58:06 10° N 23:02:05 47° WNW 23:03:22 34° WSW
CARTOSAT-1 3.8 23:05:34 56° SW 23:05:59 59° W 23:10:14 10° NNW
Meteor 1-22 Rocket 4.5 23:01:12 10° N 23:06:23 47° ENE 23:07:02 44° E
IGS 5A 3.8 23:07:26 53° WSW 23:07:40 54° W 23:11:46 10° NNW
Cosmos 1766 4.3 23:10:05 10° N 23:13:09 37° NE 23:13:09 37° NE
Cosmos 2237 4.4 23:09:58 10° NNW 23:15:39 63° WSW 23:16:47 51° SSW
Cosmos 2219 3.2 23:16:52 59° SE 23:17:19 61° ESE 23:22:59 10° NNE
Cosmos 372 Rocket 4.1 23:14:28 10° NNW 23:19:31 59° WSW 23:20:07 55° SW
YAOGAN 11 4.4 23:21:44 59° WSW 23:21:53 59° W 23:26:21 10° NNW
Cosmos 1627 Rocket 4.4 23:16:33 10° N 23:22:44 74° E 23:23:55 58° SE
H-2A R/B 4.4 23:23:09 10° WSW 23:25:06 12° W 23:27:04 10° WNW
Cosmos 1606 Rocket 3.6 23:21:13 10° N 23:25:21 71° NE 23:25:21 71° NE
Cosmos 1025 Rocket 3.8 23:25:46 41° W 23:26:21 44° WNW 23:30:33 10° N
Cosmos 2195 Rocket 4.3 23:21:30 10° N 23:27:40 85° E 23:28:52 60° SSE
Cosmos 1634 Rocket 3.9 23:27:48 53° SSW 23:29:27 86° W 23:35:50 10° N
Cosmos 2333 4.3 23:35:29 10° NNW 23:41:05 63° WSW 23:41:35 60° SW
CZ-4C R/B 2.9 23:34:03 10° NW 23:41:22 89° ENE 23:43:41 51° SE
Cosmos 2360 Rocket 3.6 23:38:53 10° NW 23:43:26 25° WSW 23:44:22 24° WSW
SL-19 R/B 4.5 23:38:01 10° NNE 23:44:08 60° ESE 23:44:29 59° ESE
Cosmos 1125 Rocket 4.3 23:40:30 10° NW 23:45:19 38° WSW 23:45:40 37° WSW
Terra 3.2 23:46:26 27° WSW 23:46:50 28° W 23:50:55 10° NW
Cosmos 2219 Rocket 2.0 23:43:43 10° NNW 23:49:19 82° WSW 23:49:36 79° SSW
Cosmos 1842 4.4 23:52:07 42° NNE 23:52:07 42° NNE 23:54:47 10° N
CZ-2C R/B 3.1 23:45:20 10° N 23:50:53 61° WNW 23:52:07 49° WSW
ADEOS Rocket 3.8 23:47:39 10° NNE 23:52:04 32° E 23:52:04 32° E
Cosmos 1805 4.3 23:49:13 10° N 23:52:00 45° N 23:52:00 45° N
H-2A R/B 3.5 23:53:44 29° ENE 23:53:44 29° ENE 23:57:04 10° N
Lacrosse 5 rocket 3.1 23:51:05 10° WNW 23:53:13 25° W 23:53:13 25° W
